sat.trackr.live / text

‹ back to catalog

STARLINK-36695

NORAD 67702 · 2026-025K

PAYLOAD ACTIVE UNKNOWN

§ Identity

Operator
Country
US
Launch date
2026-02-07
Launch site
AFWTR
Launch vehicle
Mass (kg)
RCS (m²)

Purposes: comms

External: N2YO · Heavens-Above · Gunter

§ Orbital elements

Epoch: 2026-09-19T13:12:35.242560Z

Period
93.91 min
Inclination
97.2843°
Eccentricity
0.0000891
Mean motion
15.33439780 rev/d
Perigee alt
464.9 km
Apogee alt
466.2 km
Semi-major
6,843.7 km
B*
3.5974e-4
RAAN
12.5107°
Arg perigee
52.0376°
Mean anomaly
308.0947°
Rev number
3,572

§ Raw data

STARLINK-366951 67702U 26025K   26262.55040790  .00011555  00000+0  35974-3 0  99922 67702  97.2843  12.5107 0000891  52.0376 308.0947 15.33439780 35725

JSON: /api/v1/satellites/67702 · /tle

For live sub-satellite position, see the globe view (requires WebGL).

§ Visibility from observer

Set your observer location to see the next 7 days of passes ≥ 10°. The values pass through the URL so the page stays shareable.

No JS? Fill the form by hand. The geolocation button needs JavaScript.